Regional Weather Roundup
Issued by NWS Huntsville, AL

Home | Current Version | Previous Version | Text Only | Print | Product List | Glossary On
Versions: 1 2 3 4 5 6 7 8 9 10 11 12 13 14 15 16 17 18 19 20 21 22 23 24 25 26 27 28 29 30 31 32 33 34 35 36 37 38 39 40 41 42 43 44 45 46 47 48 49 50
000
ASUS44 KHUN 040610
RWRHUN

WEATHER ROUNDUP FOR THE TENNESSEE VALLEY
NATIONAL WEATHER SERVICE HUNTSVILLE AL
100 AM CDT FRI SEP 04 2015

ALZ001>004-040700-
NORTHWEST ALABAMA

CITY           SKY/WX    TMP DP  RH WIND       PRES   REMARKS
COURTLAND HCN    N/A     72 N/A N/A CALM        N/A
SHOALS AIRPORT PTCLDY    73  69  87 CALM      29.98S
6HR MIN TEMP:  72; 6HR MAX TEMP:  83;

SHOALS TVA RES   N/A     72 N/A N/A MISG        N/A
$$

ALZ005>007-016-040700-
NORTH CENTRAL ALABAMA

CITY           SKY/WX    TMP DP  RH WIND       PRES   REMARKS
CULLMAN AG STN   N/A     70 N/A N/A CALM        N/A
DECATUR AP     CLEAR     71  71 100 CALM      29.98S FOG
6HR MIN TEMP:  70; 6HR MAX TEMP:  80;

HUNTSVILLE AP  CLEAR     72  70  93 SE3       29.98R FOG
6HR MIN TEMP:  72; 6HR MAX TEMP:  82;

HUN NWS/UAH      N/A     76  70  82 CALM        N/A
MERIDIANVILLE  CLEAR     70  66  88 CALM      29.99R
REDSTONE ARSN  CLEAR     71  70  96 W2        29.97S
VINEMONT AP    FAIR      68  68 100 CALM      30.01S FOG
$$

ALZ008>010-040700-
NORTHEAST ALABAMA

CITY           SKY/WX    TMP DP  RH WIND       PRES   REMARKS
ALBERTVILLE    CLEAR     70  70 100 CALM      29.99S
FORT PAYNE     CLEAR     68  64  88 CALM      29.99S
SCOTTSBORO AP  PTCLDY    72  72 100 CALM      29.99S
SCOTTSBORO HCN   N/A     70 N/A N/A MISG        N/A
VALLEY HEAD      N/A     66 N/A N/A MISG        N/A
$$

TNZ076-096-097-040700-
SOUTHEASTERN MIDDLE TENNESSEE

CITY           SKY/WX    TMP DP  RH WIND       PRES   REMARKS
TULLAHOMA      CLEAR     70  66  88 CALM      30.01S
WINCHESTER     CLEAR     68  68 100 CALM      30.00S
$$

...SURROUNDING SITES...

CITY           SKY/WX    TMP DP  RH WIND       PRES   REMARKS
ATLANTA        PTCLDY    71  67  87 NW3       29.97F
ANNISTON       CLEAR     71  69  93 CALM      29.98S
BIRMINGHAM     CLEAR     75  72  90 NE3       29.99F
CHATTANOOGA    CLEAR     72  69  90 CALM      29.98S
DALTON         CLEAR     68  68 100 CALM      29.98S
GADSDEN        CLEAR     70  64  83 CALM      29.97S
GOLDEN TRNGL   CLEAR     73  66  78 CALM      29.95S
HALEYVILLE     FAIR      70  70 100 CALM      30.01S FOG
JACKSON TN     CLEAR     72  71  97 CALM      29.96S FOG
MEMPHIS        CLEAR     79  70  74 CALM      29.96R
NASHVILLE      PTCLDY    76  67  73 CALM      29.98S
OXFORD MS      FAIR      70  68  94 CALM      29.98S
ROME           CLEAR     68  66  93 CALM      29.97S
SAVANNAH       CLEAR     72  32  23 CALM      29.97S
TUPELO         CLEAR     74  71  91 CALM      29.95S
TUSCALOOSA     CLEAR     72  70  93 W3        29.95F FOG
$$

...GULF COAST WEATHER...

CITY           SKY/WX    TMP DP  RH WIND       PRES   REMARKS
GULFPORT       MOCLDY    75  72  90 CALM      29.95S
PASCAGOULA     CLEAR     71  71 100 CALM      29.96S
MOBILE         CLEAR     73  72  96 W3        29.97S
GULF SHORES    CLEAR     72  72 100 CALM      29.96S
DESTIN         CLEAR     81  76  84 CALM      29.94F
PANAMA CITY    PTCLDY    76  74  94 CALM      29.94F
APPALACHICOLA  MOCLDY    74  74 100 CALM      29.94F
$$



USA.gov is the U.S. government's official web portal to all federal, state and local government web resources and services.